KUIPER-00593

导读

KUIPER-00593(NORAD编号69278)是亚马逊低轨卫星互联网星座(原柯伊伯计划)的组网卫星,该星座2025年11月更名,目标部署3236颗低轨卫星为全球网络欠发达地区提供高速宽带服务,还可对接AWS云服务实现空天地一体化算力支撑。该卫星属于2025年9月KA-03任务发射的27颗卫星之一,由Atlas V 551火箭从卡纳维拉尔角发射,初始送入450公里过渡轨道,后提升至630公里工作轨道,配备相控阵天线与星间激光链路,目前在轨正常运行,是亚马逊星座规模化组网阶段的重要组成节点。

Basic Information
目录编号:
69278
目录名称:
KUIPER-00593
国际标识:
2026-118M
轨道中心:
EARTH
卫星名称:
KUIPER-00593
卫星全名:
KUIPER-00593
卫星状态:
在轨 (已飞行106 天)
发射日期:
2026-05-29 UTC
国别 :
美国 (US)
星等 :
--
This satellite is enrolled in the Space Conjunction Data Service (SCDS) and the current flight risk assessment level is: No High Risk
Orbit Information
数据来源 国际轨道数据
星历时间: 2026-09-12T06:00:02+0800
6小时前
查看轨道信息
半长轴: 7002.709km
偏心率: 0.0001121
轨道倾角: 51.900°
近地点辐角 72.146°
升交点赤经 359.668°
平近点角 283.316°
近地点: 623.786km
远地点: 625.358km
周期: 97.198分钟
每日圈数: 14.815069
Detailed Information
使用方式:
暂无
2D Orbit Map
3D Orbit Map
Orbit Altitude Analysis Chart
Orbit Inclination Analysis Chart
Orbit Comprehensive Analysis Chart
View Comprehensive Chart
Conjunction Data List
Event ID Objects TCA Miss Dist (km) Collision Risk Probability Collision Risk Index (CRI) Action
CDM_260910-033206-463506-927821
2026-09-10T
03:32:01+0000
2.354 km
极远距离
1.658686E-6 低风险 0.39
CDM_260906-034005-457606-927821
2026-09-06T
03:40:33+0000
2.608 km
极远距离
1.193786E-6 低风险 0.37
CDM_260914-031806-452506-927821
2026-09-14T
03:18:18+0000
2.930 km
极远距离
1.167804E-6 低风险 0.36
Miss Distance Evolution Trend with All Objects
Collision Probability Evolution Trend with All Objects